^^

..:: Storico WU ::..




Lo storico viene creato da WUnderground con i dati che la stazione Meteomincio invia al loro server. L' aggiornamento viene fatto ogni 5 minuti circa, tuttavia possono esserci intervalli pił ampi a causa di errori, interruzioni di servizio o problemi nell' invio tramite FTP.


Storico stazione MeteoMincio
Giorno Sommario per Dicembre 01, 2022 Unità:  Inglese    Metrico   Entrambi
Giorno Settimana Mese Anno
  Max: Min: Media:
Temperatura: 46.4 °F 37.4 °F 40.6 °F
Dew Point: 42.8 °F 35.6 °F 38.3 °F
Umidità: 96% 83% 92%
Velocità vento: 6.8mph 0mph 3.4mph
Raffica: 9.3mph - -
Direzione- - West
Pressione: 30.1 in 30.1 in -
Precipitazioni: 0 in    
 
 
Tabulato Dati per Dicembre 01, 2022
Ora Temperatura Dew Point Pressione Direzione Velocità vento Raffica Umidità Intensità pioggia (oraria) Info solare Situazione
00:04 41 °F 39.2 °F 30.1 in West 3.7 mph 5 mph 91% 0 in 0.00 W/m2 unknown
00:09 41 °F 39.2 °F 30.1 in WNW 3.7 mph 5 mph 91% 0 in 0.00 W/m2 unknown
00:14 41 °F 39.2 °F 30.1 in WNW 3.7 mph 5 mph 91% 0 in 0.00 W/m2 unknown
00:19 41 °F 39.2 °F 30.1 in West 3.7 mph 5 mph 91% 0 in 0.00 W/m2 unknown
00:24 41 °F 37.4 °F 30.1 in WNW 3.1 mph 5 mph 91% 0 in 0.00 W/m2 unknown
00:29 41 °F 37.4 °F 30.1 in WNW 5 mph 6.2 mph 91% 0 in 0.00 W/m2 unknown
00:34 41 °F 37.4 °F 30.1 in WNW 5.6 mph 6.8 mph 91% 0 in 0.00 W/m2 unknown
00:39 41 °F 37.4 °F 30.1 in West 5 mph 6.8 mph 91% 0 in 0.00 W/m2 unknown
00:44 41 °F 37.4 °F 30.1 in West 4.3 mph 6.8 mph 91% 0 in 0.00 W/m2 unknown
00:49 41 °F 37.4 °F 30.1 in WNW 5 mph 6.2 mph 91% 0 in 0.00 W/m2 unknown
00:54 41 °F 37.4 °F 30.1 in West 5 mph 6.2 mph 91% 0 in 0.00 W/m2 unknown
00:59 41 °F 37.4 °F 30.1 in West 3.1 mph 6.2 mph 91% 0 in 0.00 W/m2 unknown
01:04 39.2 °F 37.4 °F 30.1 in West 5 mph 6.2 mph 91% 0 in 0.00 W/m2 unknown
01:09 39.2 °F 37.4 °F 30.1 in West 3.7 mph 6.2 mph 91% 0 in 0.00 W/m2 unknown
01:14 39.2 °F 37.4 °F 30.1 in West 3.1 mph 5 mph 91% 0 in 0.00 W/m2 unknown
01:19 39.2 °F 37.4 °F 30.1 in West 3.7 mph 3.7 mph 91% 0 in 0.00 W/m2 unknown
01:24 39.2 °F 37.4 °F 30.1 in West 2.5 mph 5 mph 92% 0 in 0.00 W/m2 unknown
01:29 39.2 °F 37.4 °F 30.1 in West 2.5 mph 5 mph 92% 0 in 0.00 W/m2 unknown
01:34 39.2 °F 37.4 °F 30.1 in West 4.3 mph 6.2 mph 92% 0 in 0.00 W/m2 unknown
01:39 39.2 °F 37.4 °F 30.1 in West 3.1 mph 6.2 mph 92% 0 in 0.00 W/m2 unknown
01:44 39.2 °F 37.4 °F 30.1 in West 3.1 mph 3.7 mph 92% 0 in 0.00 W/m2 unknown
01:49 39.2 °F 37.4 °F 30.1 in West 3.7 mph 6.2 mph 92% 0 in 0.00 W/m2 unknown
01:54 39.2 °F 37.4 °F 30.1 in West 3.1 mph 6.2 mph 92% 0 in 0.00 W/m2 unknown
01:59 39.2 °F 37.4 °F 30.1 in West 1.2 mph 3.7 mph 92% 0 in 0.00 W/m2 unknown
02:04 39.2 °F 37.4 °F 30.1 in West 1.9 mph 3.1 mph 92% 0 in 0.00 W/m2 unknown
02:09 39.2 °F 37.4 °F 30.1 in West 4.3 mph 6.2 mph 92% 0 in 0.00 W/m2 unknown
02:14 39.2 °F 37.4 °F 30.1 in West 2.5 mph 3.7 mph 92% 0 in 0.00 W/m2 unknown
02:19 39.2 °F 37.4 °F 30.1 in West 1.2 mph 3.1 mph 92% 0 in 0.00 W/m2 unknown
02:24 39.2 °F 37.4 °F 30.1 in West 3.1 mph 3.7 mph 92% 0 in 0.00 W/m2 unknown
02:29 39.2 °F 37.4 °F 30.1 in WSW 3.1 mph 3.7 mph 92% 0 in 0.00 W/m2 unknown
02:34 39.2 °F 37.4 °F 30.1 in WSW 1.2 mph 3.7 mph 92% 0 in 0.00 W/m2 unknown
02:39 39.2 °F 37.4 °F 30.1 in WSW 2.5 mph 3.7 mph 92% 0 in 0.00 W/m2 unknown
02:44 39.2 °F 37.4 °F 30.1 in WSW 1.9 mph 3.1 mph 92% 0 in 0.00 W/m2 unknown
02:49 39.2 °F 37.4 °F 30.1 in WSW 1.9 mph 3.7 mph 92% 0 in 0.00 W/m2 unknown
02:54 39.2 °F 37.4 °F 30.1 in West 2.5 mph 3.7 mph 92% 0 in 0.00 W/m2 unknown
02:59 39.2 °F 37.4 °F 30.1 in West 2.5 mph 3.7 mph 92% 0 in 0.00 W/m2 unknown
03:04 39.2 °F 37.4 °F 30.1 in WSW 1.2 mph 3.7 mph 92% 0 in 0.00 W/m2 unknown
03:09 39.2 °F 37.4 °F 30.1 in West 3.1 mph 3.7 mph 92% 0 in 0.00 W/m2 unknown
03:14 39.2 °F 37.4 °F 30.1 in West 3.1 mph 3.7 mph 93% 0 in 0.00 W/m2 unknown
03:19 39.2 °F 37.4 °F 30.1 in West 2.5 mph 3.7 mph 93% 0 in 0.00 W/m2 unknown
03:24 39.2 °F 37.4 °F 30.1 in West 3.1 mph 3.7 mph 93% 0 in 0.00 W/m2 unknown
03:29 39.2 °F 37.4 °F 30.1 in WNW 3.1 mph 3.7 mph 93% 0 in 0.00 W/m2 unknown
03:34 39.2 °F 37.4 °F 30.1 in West 3.1 mph 3.7 mph 93% 0 in 0.00 W/m2 unknown
03:39 39.2 °F 37.4 °F 30.1 in West 3.1 mph 3.7 mph 93% 0 in 0.00 W/m2 unknown
03:44 39.2 °F 37.4 °F 30.1 in WNW 3.1 mph 3.7 mph 93% 0 in 0.00 W/m2 unknown
03:49 39.2 °F 37.4 °F 30.1 in WNW 2.5 mph 3.7 mph 93% 0 in 0.00 W/m2 unknown
03:54 39.2 °F 37.4 °F 30.1 in WNW 1.9 mph 3.7 mph 93% 0 in 0.00 W/m2 unknown
03:59 39.2 °F 37.4 °F 30.1 in WNW 0.6 mph 2.5 mph 93% 0 in 0.00 W/m2 unknown
04:04 39.2 °F 37.4 °F 30.1 in Calm   1.2 mph 93% 0 in 0.00 W/m2 unknown
04:09 39.2 °F 37.4 °F 30.1 in WNW 1.9 mph 3.7 mph 93% 0 in 0.00 W/m2 unknown
04:14 39.2 °F 37.4 °F 30.1 in WNW 2.5 mph 3.7 mph 93% 0 in 0.00 W/m2 unknown
04:19 39.2 °F 37.4 °F 30.1 in West 1.9 mph 3.7 mph 93% 0 in 0.00 W/m2 unknown
04:24 39.2 °F 37.4 °F 30.1 in West 1.2 mph 3.1 mph 93% 0 in 0.00 W/m2 unknown
04:29 39.2 °F 37.4 °F 30.1 in West 3.1 mph 3.7 mph 93% 0 in 0.00 W/m2 unknown
04:34 39.2 °F 37.4 °F 30.1 in WNW 3.7 mph 5 mph 93% 0 in 0.00 W/m2 unknown
04:39 39.2 °F 37.4 °F 30.1 in West 1.9 mph 5 mph 93% 0 in 0.00 W/m2 unknown
04:44 39.2 °F 37.4 °F 30.1 in West 2.5 mph 3.7 mph 93% 0 in 0.00 W/m2 unknown
04:49 39.2 °F 37.4 °F 30.1 in WSW 3.1 mph 3.7 mph 93% 0 in 0.00 W/m2 unknown
04:54 39.2 °F 37.4 °F 30.1 in WSW 1.2 mph 3.1 mph 93% 0 in 0.00 W/m2 unknown
04:59 39.2 °F 37.4 °F 30.1 in West 1.9 mph 3.1 mph 93% 0 in 0.00 W/m2 unknown
05:04 39.2 °F 37.4 °F 30.1 in West 2.5 mph 3.7 mph 93% 0 in 0.00 W/m2 unknown
05:09 39.2 °F 37.4 °F 30.1 in West 2.5 mph 3.7 mph 93% 0 in 0.00 W/m2 unknown
05:14 39.2 °F 37.4 °F 30.1 in West 3.1 mph 3.7 mph 93% 0 in 0.00 W/m2 unknown
05:19 39.2 °F 37.4 °F 30.1 in West 3.1 mph 3.7 mph 93% 0 in 0.00 W/m2 unknown
05:24 39.2 °F 37.4 °F 30.1 in West 2.5 mph 3.7 mph 93% 0 in 0.00 W/m2 unknown
05:29 39.2 °F 37.4 °F 30.1 in WNW 1.9 mph 3.7 mph 93% 0 in 0.00 W/m2 unknown
05:34 39.2 °F 37.4 °F 30.1 in WNW 1.9 mph 3.7 mph 93% 0 in 0.00 W/m2 unknown
05:39 39.2 °F 37.4 °F 30.1 in West 2.5 mph 3.7 mph 93% 0 in 0.00 W/m2 unknown
05:44 39.2 °F 37.4 °F 30.1 in West 1.2 mph 3.1 mph 93% 0 in 0.00 W/m2 unknown
05:49 39.2 °F 37.4 °F 30.1 in West 2.5 mph 3.7 mph 93% 0 in 0.00 W/m2 unknown
05:54 39.2 °F 37.4 °F 30.1 in WSW 3.1 mph 3.7 mph 93% 0 in 0.00 W/m2 unknown
05:59 39.2 °F 37.4 °F 30.1 in West 1.9 mph 3.7 mph 93% 0 in 0.00 W/m2 unknown
06:04 39.2 °F 37.4 °F 30.1 in West 3.1 mph 3.7 mph 93% 0 in 0.00 W/m2 unknown
06:09 39.2 °F 37.4 °F 30.1 in West 3.1 mph 3.7 mph 93% 0 in 0.00 W/m2 unknown
06:14 39.2 °F 37.4 °F 30.1 in West 1.9 mph 3.7 mph 93% 0 in 0.00 W/m2 unknown
06:19 39.2 °F 37.4 °F 30.1 in West 1.9 mph 3.7 mph 93% 0 in 0.00 W/m2 unknown
06:24 39.2 °F 37.4 °F 30.1 in West 3.1 mph 3.7 mph 93% 0 in 0.00 W/m2 unknown
06:29 39.2 °F 37.4 °F 30.1 in West 3.7 mph 5 mph 93% 0 in 0.00 W/m2 unknown
06:34 39.2 °F 37.4 °F 30.1 in West 3.7 mph 5 mph 93% 0 in 0.00 W/m2 unknown
06:39 39.2 °F 37.4 °F 30.1 in West 5 mph 6.2 mph 93% 0 in 0.00 W/m2 unknown
06:44 39.2 °F 37.4 °F 30.1 in West 5 mph 6.2 mph 93% 0 in 0.00 W/m2 unknown
06:49 39.2 °F 37.4 °F 30.1 in West 5 mph 6.2 mph 93% 0 in 0.00 W/m2 unknown
06:54 39.2 °F 37.4 °F 30.1 in West 4.3 mph 5 mph 93% 0 in 0.00 W/m2 unknown
06:59 39.2 °F 37.4 °F 30.1 in West 3.7 mph 5 mph 93% 0 in 0.00 W/m2 unknown
07:04 39.2 °F 37.4 °F 30.1 in West 3.7 mph 6.2 mph 93% 0 in 0.00 W/m2 unknown
07:09 39.2 °F 37.4 °F 30.1 in West 5 mph 6.8 mph 93% 0 in 0.00 W/m2 unknown
07:14 39.2 °F 37.4 °F 30.1 in WNW 5.6 mph 8.1 mph 93% 0 in 0.00 W/m2 unknown
07:19 37.4 °F 37.4 °F 30.1 in WNW 6.2 mph 8.1 mph 93% 0 in 0.00 W/m2 unknown
07:24 37.4 °F 37.4 °F 30.1 in West 3.1 mph 8.1 mph 93% 0 in 0.00 W/m2 unknown
07:29 37.4 °F 37.4 °F 30.1 in West 3.7 mph 5 mph 93% 0 in 0.00 W/m2 unknown
07:34 37.4 °F 37.4 °F 30.1 in West 4.3 mph 5 mph 93% 0 in 0.00 W/m2 unknown
07:39 39.2 °F 37.4 °F 30.1 in West 5 mph 6.8 mph 93% 0 in 0.00 W/m2 unknown
07:44 37.4 °F 35.6 °F 30.1 in West 5.6 mph 6.8 mph 93% 0 in 0.00 W/m2 unknown
07:49 37.4 °F 35.6 °F 30.1 in West 3.7 mph 6.8 mph 93% 0 in 0.00 W/m2 unknown
07:54 37.4 °F 35.6 °F 30.1 in West 5 mph 6.2 mph 93% 0 in 7.00 W/m2 unknown
07:59 37.4 °F 35.6 °F 30.1 in WNW 5.6 mph 6.8 mph 93% 0 in 12.00 W/m2 unknown
08:04 37.4 °F 35.6 °F 30.1 in West 6.2 mph 6.8 mph 93% 0 in 16.00 W/m2 unknown
08:09 37.4 °F 35.6 °F 30.1 in WNW 5.6 mph 8.1 mph 93% 0 in 25.00 W/m2 unknown
08:14 37.4 °F 35.6 °F 30.1 in WNW 6.8 mph 8.1 mph 93% 0 in 28.00 W/m2 unknown
08:19 37.4 °F 35.6 °F 30.1 in WNW 6.8 mph 8.1 mph 93% 0 in 33.00 W/m2 unknown
08:24 37.4 °F 35.6 °F 30.1 in West 6.2 mph 8.1 mph 93% 0 in 40.00 W/m2 unknown
08:29 37.4 °F 35.6 °F 30.1 in West 5.6 mph 8.1 mph 93% 0 in 44.00 W/m2 unknown
08:34 37.4 °F 35.6 °F 30.1 in WNW 5 mph 6.8 mph 93% 0 in 49.00 W/m2 unknown
08:39 37.4 °F 35.6 °F 30.1 in West 5 mph 6.8 mph 93% 0 in 56.00 W/m2 unknown
08:44 37.4 °F 35.6 °F 30.1 in WNW 5 mph 6.8 mph 93% 0 in 56.00 W/m2 unknown
08:49 37.4 °F 35.6 °F 30.1 in WNW 5 mph 6.8 mph 93% 0 in 58.00 W/m2 unknown
08:54 37.4 °F 35.6 °F 30.1 in WNW 6.2 mph 6.8 mph 93% 0 in 65.00 W/m2 unknown
08:59 37.4 °F 35.6 °F 30.1 in WNW 6.2 mph 6.8 mph 93% 0 in 72.00 W/m2 unknown
09:04 37.4 °F 35.6 °F 30.1 in West 5.6 mph 6.8 mph 93% 0 in 72.00 W/m2 unknown
09:09 37.4 °F 35.6 °F 30.1 in West 5.6 mph 6.8 mph 93% 0 in 69.00 W/m2 unknown
09:14 37.4 °F 35.6 °F 30.1 in WNW 6.2 mph 8.1 mph 93% 0 in 84.00 W/m2 unknown
09:19 37.4 °F 35.6 °F 30.1 in WNW 5.6 mph 8.1 mph 93% 0 in 84.00 W/m2 unknown
09:24 37.4 °F 35.6 °F 30.1 in WNW 6.8 mph 8.1 mph 92% 0 in 84.00 W/m2 unknown
09:29 37.4 °F 35.6 °F 30.1 in WNW 6.2 mph 8.1 mph 92% 0 in 83.00 W/m2 unknown
09:34 37.4 °F 35.6 °F 30.1 in WNW 6.2 mph 8.1 mph 92% 0 in 86.00 W/m2 unknown
09:39 37.4 °F 35.6 °F 30.1 in West 4.3 mph 5.6 mph 92% 0 in 88.00 W/m2 unknown
09:44 37.4 °F 35.6 °F 30.1 in West 3.7 mph 5 mph 92% 0 in 93.00 W/m2 unknown
09:49 37.4 °F 35.6 °F 30.1 in WNW 4.3 mph 6.2 mph 92% 0 in 98.00 W/m2 unknown
09:54 37.4 °F 35.6 °F 30.1 in WNW 5.6 mph 6.8 mph 92% 0 in 102.00 W/m2 unknown
09:59 39.2 °F 35.6 °F 30.1 in WNW 6.2 mph 8.1 mph 92% 0 in 105.00 W/m2 unknown
10:04 39.2 °F 35.6 °F 30.1 in WNW 6.2 mph 8.1 mph 92% 0 in 114.00 W/m2 unknown
10:09 39.2 °F 37.4 °F 30.1 in WNW 5 mph 6.8 mph 92% 0 in 125.00 W/m2 unknown
10:14 39.2 °F 37.4 °F 30.1 in West 4.3 mph 6.2 mph 92% 0 in 128.00 W/m2 unknown
10:19 39.2 °F 37.4 °F 30.1 in West 5 mph 6.2 mph 91% 0 in 132.00 W/m2 unknown
10:24 39.2 °F 37.4 °F 30.1 in West 5 mph 6.2 mph 91% 0 in 135.00 W/m2 unknown
10:29 39.2 °F 37.4 °F 30.1 in West 3.7 mph 5 mph 91% 0 in 144.00 W/m2 unknown
10:34 39.2 °F 37.4 °F 30.1 in West 4.3 mph 6.2 mph 91% 0 in 144.00 W/m2 unknown
10:39 39.2 °F 37.4 °F 30.1 in WSW 3.7 mph 6.2 mph 91% 0 in 146.00 W/m2 unknown
10:44 39.2 °F 37.4 °F 30.1 in West 4.3 mph 6.2 mph 91% 0 in 148.00 W/m2 unknown
10:49 41 °F 37.4 °F 30.1 in West 3.1 mph 5 mph 91% 0 in 149.00 W/m2 unknown
10:54 41 °F 37.4 °F 30.1 in West 5 mph 6.8 mph 91% 0 in 151.00 W/m2 unknown
10:59 41 °F 37.4 °F 30.1 in West 4.3 mph 6.8 mph 90% 0 in 156.00 W/m2 unknown
11:04 41 °F 39.2 °F 30.1 in West 5 mph 6.8 mph 90% 0 in 165.00 W/m2 unknown
11:09 41 °F 39.2 °F 30.1 in West 5.6 mph 6.8 mph 90% 0 in 172.00 W/m2 unknown
11:14 41 °F 39.2 °F 30.1 in West 6.2 mph 8.1 mph 90% 0 in 174.00 W/m2 unknown
11:19 41 °F 39.2 °F 30.1 in West 5 mph 8.1 mph 90% 0 in 183.00 W/m2 unknown
11:24 42.8 °F 39.2 °F 30.1 in West 5.6 mph 8.1 mph 90% 0 in 207.00 W/m2 unknown
11:29 42.8 °F 39.2 °F 30.1 in West 5.6 mph 8.1 mph 90% 0 in 237.00 W/m2 unknown
11:34 42.8 °F 39.2 °F 30.1 in WSW 5 mph 8.1 mph 90% 0 in 251.00 W/m2 unknown
11:39 42.8 °F 39.2 °F 30.1 in WSW 5.6 mph 6.8 mph 90% 0 in 255.00 W/m2 unknown
11:44 42.8 °F 39.2 °F 30.1 in WSW 6.2 mph 9.3 mph 90% 0 in 272.00 W/m2 unknown
11:49 42.8 °F 39.2 °F 30.1 in WSW 6.2 mph 8.7 mph 89% 0 in 281.00 W/m2 unknown
11:54 42.8 °F 41 °F 30.1 in West 3.7 mph 6.8 mph 89% 0 in 214.00 W/m2 unknown
11:59 42.8 °F 41 °F 30.1 in West 4.3 mph 6.2 mph 89% 0 in 176.00 W/m2 unknown
12:04 42.8 °F 41 °F 30.1 in WSW 5 mph 6.8 mph 89% 0 in 163.00 W/m2 unknown
12:09 42.8 °F 41 °F 30.1 in WSW 5.6 mph 6.8 mph 89% 0 in 158.00 W/m2 unknown
12:14 44.6 °F 41 °F 30.1 in West 5.6 mph 6.8 mph 89% 0 in 160.00 W/m2 unknown
12:19 44.6 °F 41 °F 30.1 in WSW 6.2 mph 8.1 mph 89% 0 in 155.00 W/m2 unknown
12:24 44.6 °F 41 °F 30.1 in West 6.2 mph 8.1 mph 89% 0 in 128.00 W/m2 unknown
12:29 44.6 °F 41 °F 30.1 in West 5 mph 8.1 mph 89% 0 in 118.00 W/m2 unknown
12:34 44.6 °F 41 °F 30.1 in WSW 6.2 mph 8.1 mph 88% 0 in 113.00 W/m2 unknown
12:39 44.6 °F 41 °F 30.1 in West 5.6 mph 6.8 mph 88% 0 in 111.00 W/m2 unknown
12:44 44.6 °F 41 °F 30.1 in West 5.6 mph 6.8 mph 88% 0 in 109.00 W/m2 unknown
12:49 44.6 °F 41 °F 30.1 in West 6.2 mph 6.8 mph 88% 0 in 107.00 W/m2 unknown
12:54 44.6 °F 41 °F 30.1 in West 6.2 mph 8.1 mph 88% 0 in 107.00 W/m2 unknown
12:59 44.6 °F 41 °F 30.1 in West 5.6 mph 8.1 mph 88% 0 in 116.00 W/m2 unknown
13:04 44.6 °F 41 °F 30.1 in West 5 mph 8.1 mph 88% 0 in 132.00 W/m2 unknown
13:09 44.6 °F 41 °F 30.1 in West 5 mph 6.2 mph 88% 0 in 162.00 W/m2 unknown
13:14 44.6 °F 41 °F 30.1 in West 5.6 mph 6.8 mph 88% 0 in 190.00 W/m2 unknown
13:19 44.6 °F 41 °F 30.1 in West 6.2 mph 6.8 mph 87% 0 in 251.00 W/m2 unknown
13:24 44.6 °F 41 °F 30.1 in West 6.2 mph 6.8 mph 87% 0 in 251.00 W/m2 unknown
13:29 46.4 °F 42.8 °F 30.1 in West 5 mph 6.8 mph 87% 0 in 202.00 W/m2 unknown
13:34 46.4 °F 42.8 °F 30.1 in WSW 5 mph 6.8 mph 87% 0 in 202.00 W/m2 unknown
13:39 46.4 °F 41 °F 30.1 in West 5.6 mph 6.8 mph 86% 0 in 169.00 W/m2 unknown
13:44 46.4 °F 41 °F 30.1 in WSW 6.2 mph 6.8 mph 86% 0 in 158.00 W/m2 unknown
13:49 44.6 °F 41 °F 30.1 in West 6.2 mph 8.1 mph 87% 0 in 149.00 W/m2 unknown
13:54 46.4 °F 41 °F 30.1 in West 6.2 mph 8.1 mph 87% 0 in 163.00 W/m2 unknown
13:59 46.4 °F 41 °F 30.1 in West 5.6 mph 8.1 mph 86% 0 in 128.00 W/m2 unknown
14:04 46.4 °F 41 °F 30.1 in West 6.2 mph 8.1 mph 85% 0 in 134.00 W/m2 unknown
14:09 46.4 °F 41 °F 30.1 in West 5.6 mph 6.8 mph 85% 0 in 155.00 W/m2 unknown
14:14 46.4 °F 41 °F 30.1 in West 6.2 mph 6.8 mph 85% 0 in 190.00 W/m2 unknown
14:19 46.4 °F 41 °F 30.1 in West 5 mph 6.8 mph 85% 0 in 243.00 W/m2 unknown
14:24 46.4 °F 42.8 °F 30.1 in West 5 mph 6.8 mph 85% 0 in 243.00 W/m2 unknown
14:29 46.4 °F 42.8 °F 30.1 in West 5 mph 6.2 mph 85% 0 in 229.00 W/m2 unknown
14:34 46.4 °F 42.8 °F 30.1 in West 5 mph 6.8 mph 84% 0 in 225.00 W/m2 unknown
14:39 46.4 °F 42.8 °F 30.1 in West 6.2 mph 8.1 mph 84% 0 in 220.00 W/m2 unknown
14:44 46.4 °F 42.8 °F 30.1 in West 5.6 mph 8.1 mph 83% 0 in 193.00 W/m2 unknown
14:49 46.4 °F 41 °F 30.1 in West 5.6 mph 8.1 mph 83% 0 in 162.00 W/m2 unknown
14:54 46.4 °F 42.8 °F 30.1 in West 4.3 mph 5.6 mph 84% 0 in 156.00 W/m2 unknown
14:59 46.4 °F 42.8 °F 30.1 in West 4.3 mph 6.2 mph 84% 0 in 144.00 W/m2 unknown
15:04 46.4 °F 42.8 °F 30.1 in West 5 mph 6.8 mph 84% 0 in 127.00 W/m2 unknown
15:09 46.4 °F 42.8 °F 30.1 in West 5.6 mph 6.8 mph 85% 0 in 116.00 W/m2 unknown
15:14 46.4 °F 42.8 °F 30.1 in West 5.6 mph 6.8 mph 85% 0 in 105.00 W/m2 unknown
15:19 46.4 °F 41 °F 30.1 in West 5 mph 6.8 mph 85% 0 in 100.00 W/m2 unknown
15:24 46.4 °F 41 °F 30.1 in West 5.6 mph 6.8 mph 85% 0 in 91.00 W/m2 unknown
15:29 46.4 °F 41 °F 30.1 in West 5.6 mph 6.8 mph 84% 0 in 86.00 W/m2 unknown
15:34 46.4 °F 41 °F 30.1 in West 5 mph 6.8 mph 85% 0 in 79.00 W/m2 unknown
15:39 46.4 °F 41 °F 30.1 in West 3.1 mph 6.2 mph 85% 0 in 69.00 W/m2 unknown
15:44 46.4 °F 41 °F 30.1 in West 3.1 mph 5 mph 85% 0 in 60.00 W/m2 unknown
15:49 46.4 °F 41 °F 30.1 in West 3.1 mph 5 mph 85% 0 in 53.00 W/m2 unknown
15:54 46.4 °F 41 °F 30.1 in West 3.1 mph 5 mph 85% 0 in 44.00 W/m2 unknown
15:59 46.4 °F 42.8 °F 30.1 in West 4.3 mph 5 mph 86% 0 in 35.00 W/m2 unknown
16:04 46.4 °F 41 °F 30.1 in West 4.3 mph 6.2 mph 85% 0 in 28.00 W/m2 unknown
16:09 46.4 °F 41 °F 30.1 in West 3.7 mph 6.2 mph 86% 0 in 21.00 W/m2 unknown
16:14 44.6 °F 41 °F 30.1 in West 3.7 mph 5 mph 87% 0 in 16.00 W/m2 unknown
16:19 44.6 °F 41 °F 30.1 in West 3.1 mph 3.7 mph 87% 0 in 14.00 W/m2 unknown
16:24 44.6 °F 41 °F 30.1 in West 3.7 mph 5 mph 87% 0 in 11.00 W/m2 unknown
16:29 44.6 °F 41 °F 30.1 in West 3.7 mph 5 mph 87% 0 in 7.00 W/m2 unknown
16:34 44.6 °F 41 °F 30.1 in West 3.1 mph 5 mph 88% 0 in 9.00 W/m2 unknown
16:39 44.6 °F 41 °F 30.1 in West 4.3 mph 5 mph 88% 0 in 11.00 W/m2 unknown
16:44 44.6 °F 41 °F 30.1 in West 3.7 mph 5 mph 89% 0 in 9.00 W/m2 unknown
16:49 44.6 °F 41 °F 30.1 in West 3.7 mph 5 mph 89% 0 in 0.00 W/m2 unknown
16:54 44.6 °F 41 °F 30.1 in West 3.1 mph 5 mph 89% 0 in 0.00 W/m2 unknown
16:59 44.6 °F 41 °F 30.1 in West 3.1 mph 3.7 mph 90% 0 in 0.00 W/m2 unknown
17:04 44.6 °F 41 °F 30.1 in West 2.5 mph 3.7 mph 90% 0 in 0.00 W/m2 unknown
17:09 42.8 °F 41 °F 30.1 in West 1.9 mph 3.7 mph 90% 0 in 0.00 W/m2 unknown
17:14 42.8 °F 41 °F 30.1 in West 1.9 mph 3.7 mph 90% 0 in 0.00 W/m2 unknown
17:19 42.8 °F 41 °F 30.1 in West 1.9 mph 3.1 mph 91% 0 in 0.00 W/m2 unknown
17:24 42.8 °F 41 °F 30.1 in WNW 2.5 mph 3.7 mph 91% 0 in 0.00 W/m2 unknown
17:29 42.8 °F 41 °F 30.1 in West 3.1 mph 3.7 mph 91% 0 in 0.00 W/m2 unknown
17:34 42.8 °F 39.2 °F 30.1 in West 3.1 mph 3.7 mph 91% 0 in 0.00 W/m2 unknown
17:39 42.8 °F 39.2 °F 30.1 in West 1.2 mph 3.7 mph 91% 0 in 0.00 W/m2 unknown
17:44 42.8 °F 39.2 °F 30.1 in WSW 1.2 mph 2.5 mph 91% 0 in 0.00 W/m2 unknown
17:49 42.8 °F 39.2 °F 30.1 in WSW 0.6 mph 1.2 mph 92% 0 in 0.00 W/m2 unknown
17:54 41 °F 39.2 °F 30.1 in West 3.1 mph 3.7 mph 92% 0 in 0.00 W/m2 unknown
17:59 41 °F 39.2 °F 30.1 in West 3.1 mph 3.7 mph 92% 0 in 0.00 W/m2 unknown
18:04 41 °F 39.2 °F 30.1 in WSW 1.2 mph 3.7 mph 92% 0 in 0.00 W/m2 unknown
18:09 41 °F 39.2 °F 30.1 in WSW 1.9 mph 3.1 mph 92% 0 in 0.00 W/m2 unknown
18:14 41 °F 39.2 °F 30.1 in West 2.5 mph 3.7 mph 92% 0 in 0.00 W/m2 unknown
18:19 41 °F 39.2 °F 30.1 in West 2.5 mph 3.7 mph 93% 0 in 0.00 W/m2 unknown
18:24 41 °F 39.2 °F 30.1 in West 1.9 mph 3.1 mph 93% 0 in 0.00 W/m2 unknown
18:29 41 °F 39.2 °F 30.1 in West 1.2 mph 2.5 mph 93% 0 in 0.00 W/m2 unknown
18:34 41 °F 37.4 °F 30.1 in WSW 1.2 mph 2.5 mph 93% 0 in 0.00 W/m2 unknown
18:39 41 °F 37.4 °F 30.1 in WSW 2.5 mph 3.7 mph 93% 0 in 0.00 W/m2 unknown
18:44 39.2 °F 37.4 °F 30.1 in WSW 3.1 mph 3.7 mph 93% 0 in 0.00 W/m2 unknown
18:49 39.2 °F 37.4 °F 30.1 in WSW 3.1 mph 3.7 mph 93% 0 in 0.00 W/m2 unknown
18:54 39.2 °F 37.4 °F 30.1 in West 3.1 mph 3.7 mph 94% 0 in 0.00 W/m2 unknown
18:59 39.2 °F 37.4 °F 30.1 in West 2.5 mph 3.7 mph 94% 0 in 0.00 W/m2 unknown
19:04 39.2 °F 37.4 °F 30.1 in WSW 1.9 mph 3.1 mph 94% 0 in 0.00 W/m2 unknown
19:09 39.2 °F 37.4 °F 30.1 in West 2.5 mph 3.7 mph 94% 0 in 0.00 W/m2 unknown
19:14 39.2 °F 37.4 °F 30.1 in West 2.5 mph 3.7 mph 94% 0 in 0.00 W/m2 unknown
19:19 39.2 °F 37.4 °F 30.1 in West 2.5 mph 3.7 mph 94% 0 in 0.00 W/m2 unknown
19:24 39.2 °F 37.4 °F 30.1 in West 2.5 mph 3.7 mph 94% 0 in 0.00 W/m2 unknown
19:29 39.2 °F 37.4 °F 30.1 in West 1.9 mph 3.7 mph 94% 0 in 0.00 W/m2 unknown
19:34 39.2 °F 37.4 °F 30.1 in West 1.2 mph 3.1 mph 94% 0 in 0.00 W/m2 unknown
19:39 39.2 °F 37.4 °F 30.1 in West 1.2 mph 1.9 mph 94% 0 in 0.00 W/m2 unknown
19:44 39.2 °F 37.4 °F 30.1 in Calm   1.2 mph 94% 0 in 0.00 W/m2 unknown
19:49 39.2 °F 37.4 °F 30.1 in Calm     94% 0 in 0.00 W/m2 unknown
19:54 39.2 °F 37.4 °F 30.1 in Calm     94% 0 in 0.00 W/m2 unknown
19:59 39.2 °F 37.4 °F 30.1 in Calm     94% 0 in 0.00 W/m2 unknown
20:04 39.2 °F 37.4 °F 30.1 in Calm     95% 0 in 0.00 W/m2 unknown
20:09 39.2 °F 37.4 °F 30.1 in Calm     95% 0 in 0.00 W/m2 unknown
20:14 39.2 °F 37.4 °F 30.1 in Calm     95% 0 in 0.00 W/m2 unknown
20:19 39.2 °F 37.4 °F 30.1 in Calm     95% 0 in 0.00 W/m2 unknown
20:24 39.2 °F 37.4 °F 30.1 in Calm     95% 0 in 0.00 W/m2 unknown
20:29 39.2 °F 37.4 °F 30.1 in Calm     95% 0 in 0.00 W/m2 unknown
20:34 39.2 °F 37.4 °F 30.1 in Calm     95% 0 in 0.00 W/m2 unknown
20:39 39.2 °F 37.4 °F 30.1 in WSW 2.5 mph 3.7 mph 95% 0 in 0.00 W/m2 unknown
20:44 37.4 °F 37.4 °F 30.1 in WSW 2.5 mph 3.7 mph 95% 0 in 0.00 W/m2 unknown
20:49 37.4 °F 37.4 °F 30.1 in WSW 2.5 mph 3.7 mph 95% 0 in 0.00 W/m2 unknown
20:54 37.4 °F 37.4 °F 30.1 in WSW 2.5 mph 3.7 mph 95% 0 in 0.00 W/m2 unknown
20:59 37.4 °F 37.4 °F 30.1 in West 1.9 mph 3.1 mph 95% 0 in 0.00 W/m2 unknown
21:04 37.4 °F 37.4 °F 30.1 in West 2.5 mph 3.7 mph 95% 0 in 0.00 W/m2 unknown
21:09 37.4 °F 37.4 °F 30.1 in West 1.9 mph 3.7 mph 95% 0 in 0.00 W/m2 unknown
21:14 37.4 °F 37.4 °F 30.1 in WSW 2.5 mph 3.7 mph 95% 0 in 0.00 W/m2 unknown
21:19 37.4 °F 35.6 °F 30.1 in WSW 1.9 mph 3.7 mph 95% 0 in 0.00 W/m2 unknown
21:24 37.4 °F 35.6 °F 30.1 in WSW 1.2 mph 3.1 mph 95% 0 in 0.00 W/m2 unknown
21:29 37.4 °F 35.6 °F 30.1 in West 1.9 mph 3.7 mph 95% 0 in 0.00 W/m2 unknown
21:34 37.4 °F 35.6 °F 30.1 in West 1.9 mph 3.1 mph 95% 0 in 0.00 W/m2 unknown
21:39 37.4 °F 35.6 °F 30.1 in West 1.2 mph 2.5 mph 95% 0 in 0.00 W/m2 unknown
21:44 37.4 °F 35.6 °F 30.1 in West 1.2 mph 2.5 mph 95% 0 in 0.00 W/m2 unknown
21:49 37.4 °F 35.6 °F 30.1 in West 1.2 mph 1.9 mph 95% 0 in 0.00 W/m2 unknown
21:54 37.4 °F 35.6 °F 30.1 in West 0.6 mph 1.9 mph 95% 0 in 0.00 W/m2 unknown
21:59 37.4 °F 35.6 °F 30.1 in West 1.9 mph 3.7 mph 95% 0 in 0.00 W/m2 unknown
22:04 37.4 °F 35.6 °F 30.1 in West 1.9 mph 3.7 mph 95% 0 in 0.00 W/m2 unknown
22:09 37.4 °F 35.6 °F 30.1 in West 1.2 mph 2.5 mph 95% 0 in 0.00 W/m2 unknown
22:14 37.4 °F 35.6 °F 30.1 in West 0.6 mph 1.9 mph 96% 0 in 0.00 W/m2 unknown
22:19 37.4 °F 35.6 °F 30.1 in Calm   1.2 mph 95% 0 in 0.00 W/m2 unknown
22:24 37.4 °F 35.6 °F 30.1 in Calm     96% 0 in 0.00 W/m2 unknown
22:29 37.4 °F 37.4 °F 30.1 in Calm     96% 0 in 0.00 W/m2 unknown
22:34 37.4 °F 37.4 °F 30.1 in West 1.2 mph 2.5 mph 96% 0 in 0.00 W/m2 unknown
22:39 37.4 °F 37.4 °F 30.1 in West 2.5 mph 3.7 mph 96% 0 in 0.00 W/m2 unknown
22:44 37.4 °F 37.4 °F 30.1 in West 1.9 mph 3.7 mph 96% 0 in 0.00 W/m2 unknown
22:49 37.4 °F 37.4 °F 30.1 in West 1.9 mph 3.7 mph 96% 0 in 0.00 W/m2 unknown
22:54 39.2 °F 37.4 °F 30.1 in NNE 1.9 mph 3.7 mph 96% 0 in 0.00 W/m2 unknown
22:59 39.2 °F 37.4 °F 30.1 in NNE 1.2 mph 2.5 mph 96% 0 in 0.00 W/m2 unknown
23:04 39.2 °F 37.4 °F 30.1 in NNE 0.6 mph 1.9 mph 96% 0 in 0.00 W/m2 unknown
23:09 39.2 °F 37.4 °F 30.1 in Calm   1.2 mph 96% 0 in 0.00 W/m2 unknown
23:14 39.2 °F 37.4 °F 30.1 in NNE 0.6 mph 1.2 mph 96% 0 in 0.00 W/m2 unknown
23:19 39.2 °F 37.4 °F 30.1 in NNE 0.6 mph 1.2 mph 96% 0 in 0.00 W/m2 unknown
23:24 39.2 °F 37.4 °F 30.1 in Calm   1.2 mph 96% 0 in 0.00 W/m2 unknown
23:29 39.2 °F 37.4 °F 30.1 in Calm     96% 0 in 0.00 W/m2 unknown
23:34 39.2 °F 37.4 °F 30.1 in NNE 0.6 mph 1.2 mph 96% 0 in 0.00 W/m2 unknown
23:39 39.2 °F 37.4 °F 30.1 in NNE 1.2 mph 1.2 mph 96% 0 in 0.00 W/m2 unknown
23:44 39.2 °F 37.4 °F 30.1 in Calm   1.2 mph 96% 0 in 0.00 W/m2 unknown
23:49 39.2 °F 37.4 °F 30.1 in Calm     96% 0 in 0.00 W/m2 unknown
23:54 39.2 °F 37.4 °F 30.1 in Calm     96% 0 in 0.00 W/m2 unknown
23:59 39.2 °F 37.4 °F 30.1 in Calm     96% 0 in 0.00 W/m2 unknown
Stazione Meteorologica MeteoMincio Rivalta s/M (MN)
Con i complimenti di Weather Underground - 4 mb



GLOSSARIO METEOROLOGICO
Vento
Il vento è prodotto dalla differenza di pressione tra due zone e serve per ristabilirne l'equilibrio. Dalla zona con pressione più alta l'aria affluisce a quella con pressione inferiore. Più le isobare (linee di ugual pressione) sono ravvicinate e più la forza del vento sarà intensa. Il vento è classificato dalla scala Beaufort. E' definito dalla sua direzione e dalla sua forza o, più esattamente, dalla sua velocità. Vento, pressione atmosferica e temperatura stanno in rapporto funzionale con l'andamento del tempo.
Share

Non seguire questo link o sarai bannato dal sito!